Flag for Switzerland Weather past 2 weeks in Worb, Bern, Switzerland

Now
64 °F

Partly sunny.


Feels Like: 64 °F
Forecast: 52 / 73 °F
Wind: 2 mph from North

Location: Bern / Belp

Current Time: Jul 31, 2015 at 10:21:03 PM

Latest Report: Jul 31, 2015 at 9:50 PM


Visibility: N/A

Pressure: 29.92 "Hg (27.94 "Hg at 583m altitude)

Humidity: 78%

Dew point: 57 °F

Location of WorbLocation

Historic Weather in Worb — Graph

°F

Worb temperature yesterday

Maximum temperature yesterday: 72 °F (at 4:20 PM)
Minimum temperature yesterday: 50 °F (at 6:20 AM)
Average temperature yesterday: 62 °F

Past Weeks' High & Low Weather Summary

 TemperatureHumidityPressure
High93 °F (Jul 17, 3:50 PM)100% (Jul 18, 3:50 AM)30.21 "Hg (Jul 18, 3:50 AM)
Low45 °F (Jul 31, 4:50 AM)30% (Jul 17, 2:20 PM)29.74 "Hg (Jul 24, 5:20 PM)
Average69 °F70%29.99 "Hg
* Reported Jul 16 9:20 PM — Jul 31 9:20 PM, Worb, Weather by CustomWeather, © 2015

Note: Actual official high and low records may vary slightly from our data, if they occured in-between our weather recording intervals... More about our weather records

Advertising

Worb weather history for previous 24 hours

 ConditionsComfort  
Time TempWeatherWind HumidityBarometerVisibility
9:20 PM
Fri, Jul 31
66 °FBroken clouds.1 mph68%29.92 "Hg4 mi
8:50 PM70 °FBroken clouds.2 mph53%29.92 "HgN/A
8:20 PM70 °FSunny.2 mph53%29.92 "Hg10 mi
7:50 PM70 °FSunny.5 mph53%29.92 "Hg10 mi
7:20 PM70 °FPassing clouds.5 mph53%29.89 "HgN/A
6:50 PM72 °FPassing clouds.6 mph47%29.92 "HgN/A
6:20 PM72 °FSunny.5 mph50%29.92 "Hg10 mi
5:50 PM72 °FSunny.6 mph47%29.92 "Hg10 mi
5:20 PM72 °FPassing clouds.6 mph47%29.92 "HgN/A
4:50 PM73 °FPassing clouds.8 mph44%29.92 "HgN/A
4:20 PM72 °FPassing clouds.7 mph50%29.92 "HgN/A
3:50 PM73 °FPassing clouds.8 mph47%29.92 "HgN/A
3:20 PM73 °FSunny.7 mph47%29.95 "Hg10 mi
2:50 PM73 °FSunny.7 mph47%29.95 "Hg10 mi
2:20 PM72 °FPassing clouds.8 mph47%29.95 "HgN/A
1:50 PM72 °FPassing clouds.7 mph50%29.95 "HgN/A
1:20 PM72 °FPassing clouds.8 mph50%29.98 "HgN/A
12:50 PM70 °FPassing clouds.8 mph50%29.98 "HgN/A
12:20 PM68 °FPassing clouds.7 mph56%29.98 "HgN/A
11:50 AM68 °FPassing clouds.6 mph53%29.98 "HgN/A
11:20 AM66 °FPassing clouds.7 mph56%29.98 "HgN/A
10:50 AM66 °FPassing clouds.5 mph60%29.98 "HgN/A
10:20 AM64 °FSunny.5 mph56%30.01 "Hg10 mi
9:20 AM59 °FSunny.1 mph68%30.01 "Hg10 mi
8:50 AM57 °FSunny.1 mph72%30.04 "Hg10 mi
8:20 AM55 °FSunny.1 mph82%30.04 "Hg10 mi
7:50 AM54 °FSunny.2 mph88%30.04 "Hg10 mi
7:20 AM48 °FSunny.2 mph100%30.04 "Hg10 mi
6:50 AM45 °FClear.1 mph100%30.04 "Hg10 mi
6:20 AM45 °FClear.1 mph100%30.04 "Hg10 mi
5:50 AM45 °FClear.1 mph100%30.04 "Hg10 mi
5:20 AM45 °FClear.1 mph100%30.04 "Hg10 mi
4:50 AM45 °FClear.3 mph100%30.04 "Hg10 mi
4:20 AM46 °FClear.1 mph100%30.04 "Hg10 mi
3:50 AM48 °FClear.2 mph100%30.04 "Hg10 mi
3:20 AM48 °FClear.1 mph100%30.04 "Hg10 mi
2:50 AM50 °FCool.1 mph94%30.04 "HgN/A
2:20 AM50 °FPassing clouds.1 mph94%30.04 "HgN/A
1:50 AM50 °FCool.1 mph100%30.07 "HgN/A
1:20 AM52 °FPassing clouds.1 mph94%30.07 "HgN/A
12:50 AM54 °FPassing clouds.1 mph94%30.07 "HgN/A
11:20 PM
Thu, Jul 30
55 °FPassing clouds.2 mph82%30.07 "HgN/A
10:50 PM59 °FPartly cloudy.1 mph72%30.04 "HgN/A
10:20 PM63 °FPassing clouds.2 mph52%30.04 "HgN/A
Weather by CustomWeather, © 2015

See weather overviewHow to use our weather pages